Lid_Strength_Index
-1 -1 -1 -1 -1 -1 -1 -1 -1 -1 -1 -1 -1 -1 -1 -1 -1 -1 -1 -2 -2 -1 -1 -2 -2 -1 -2 -2 -2 -2 -2 -1 -1 -1 -0 -0 -0 -0 -1 -0 -0 -0 -1
-2 -1 -1 -1 -1 -1 -1 -1 -1 -1 -1 -1 -1 -1 -1 -1 -1 -2 -1 -1 -2 -2 -1 -1 -1 -2 -2 -2 -1 -1 -1 -1 -2 -1 -1 -1 -0 -1 -1 -0 -0 -1 -1
-2 -2 -1 -1 -1 -2 -1 -1 -1 -1 -0 -0 -1 -1 -1 -1 -1 -1 -1 -1 -1 -1 -1 -2 -2 -2 -1 -2 -2 -2 -2 -2 -2 -2 -1 -1 -0 -0 -1 -0 -0 -0 -1
-2 -2 -1 -1 -1 -2 -1 -1 -1 -0 -0 -0 -0 -0 -1 -1 -1 -1 -1 -1 -1 -1 -1 -1 -1 -2 -2 -2 -2 -2 -1 -2 -2 -2 -2 -1 -1 -0 -1 -0 -0 -1 -1
-2 -1 -1 -1 -3 -1 -1 -1 -0 -0 0 0 0 0 -0 -0 -1 -1 -1 -1 -2 -2 -1 -1 -1 -1 -1 -2 -2 -2 -1 -2 -2 -2 -1 -1 -1 -0 -0 -0 -0 -1 -1
-1 -1 -1 -1 -1 -0 -0 -0 -0 -0 0 0 1 1 -0 -0 -1 -1 -1 -1 -1 -2 -2 -1 -1 -1 -1 -2 -1 -2 -1 -1 -1 -2 -2 -1 -1 -1 -0 -0 -0 -0 -0
-2 -2 -1 -1 -1 -0 -0 -0 0 0 1 0 1 1 1 -0 -0 -0 -1 -1 -1 -1 -1 -1 -1 -1 -1 -1 -1 -1 -2 -1 -2 -1 -1 -1 -1 -1 -0 0 0 0 0
-1 -1 -1 -0 0 -0 0 3 5 4 2 0 2 2 4 2 1 1 -0 -0 -1 -1 -1 -1 -1 -1 -0 -1 -1 -1 -2 -2 -2 -2 -1 -1 -1 -1 0 0 0 1 0
-1 -1 -1 -1 -1 1 1 2 3 3 3 2 1 3 5 5 3 2 1 0 -1 -0 -1 -1 -1 -1 -2 -1 -1 -1 -1 -2 -1 -1 -1 -1 -1 -1 0 -0 0 0 0
-1 -1 -1 -1 -0 -1 0 0 0 1 1 3 1 1 0 1 4 4 1 1 -0 -0 -1 -1 -1 -1 -1 -1 -1 -2 -1 -1 -1 -1 -1 -1 -1 -1 -0 0 0 1 1
-1 -1 -1 -1 -0 -0 -1 -1 0 0 1 2 2 2 1 2 1 3 4 3 1 0 -0 -0 -1 -1 -1 -2 -1 -0 -1 -1 -1 -1 -1 -1 -1 -1 -1 1 1 1 1
1 0 -1 -1 -1 -0 -0 -0 -0 0 1 1 1 1 2 3 3 4 4 4 3 1 1 -0 -0 -1 -1 -1 -1 0 -1 -1 0 0 -1 -1 -1 -1 0 1 2 2 3
0 -1 -0 -1 -0 -1 -0 -1 0 0 0 1 1 1 1 1 1 2 3 4 3 3 1 0 -0 -1 -1 -2 -1 -1 -1 0 1 1 1 -0 -1 0 1 2 3 5 5
-0 -1 -1 -1 0 -0 -1 -1 0 0 0 0 1 1 1 1 1 1 2 3 5 4 2 1 -0 -0 -1 -1 -2 -0 -1 1 2 2 2 1 1 2 3 4 5 6 6
-1 -1 -1 -1 -1 -0 -0 -1 1 0 0 0 0 0 1 1 0 0 1 1 3 5 4 2 2 -0 -1 -1 0 -1 -1 2 2 2 2 2 2 3 4 5 6 7 7
-1 -1 -1 -1 -1 -1 -1 -1 0 2 1 1 1 1 0 0 0 0 1 1 1 3 5 2 1 0 -0 -1 0 -1 -1 1 2 3 3 3 3 4 5 6 6 7 8
-1 -1 -1 -0 -0 0 -0 -0 -0 1 1 1 0 1 0 -0 1 0 1 1 1 1 3 2 1 -0 0 0 -0 1 1 1 3 4 3 3 4 4 5 6 6 7 7
-1 -1 -0 0 1 1 0 1 1 1 1 2 2 1 1 1 1 0 1 1 1 1 2 3 1 1 1 0 -0 0 0 0 1 4 4 4 5 5 5 6 7 7 8
0 0 1 1 2 2 2 1 1 1 2 2 2 2 1 1 1 1 1 1 1 1 1 2 2 1 2 0 1 1 1 0 0 3 4 5 5 6 6 5 6 7 9
1 1 1 2 2 2 2 2 1 2 3 3 3 2 2 1 1 1 1 1 1 1 1 2 2 2 2 2 2 3 3 1 1 1 2 3 5 6 5 5 6 6 8
1 1 2 2 2 2 3 2 3 3 4 5 4 3 2 1 2 2 3 1 1 1 2 2 3 2 3 3 4 3 3 2 1 -0 1 2 4 4 5 6 5 6 7
1 1 2 2 2 2 6 6 5 4 4 5 4 4 3 2 2 3 2 3 3 3 2 2 2 3 3 2 2 3 3 4 4 -0 1 1 1 2 2 4 6 6 8
1 2 2 2 2 2 6 6 6 4 4 4 4 4 4 5 2 2 2 3 4 5 5 1 2 2 2 2 1 2 2 2 3 1 1 2 0 1 1 6 8 8 8
3 3 3 2 2 2 6 7 6 4 3 3 2 2 2 2 3 3 3 3 2 2 1 2 0 0 -0 0 0 1 1 1 1 0 0 3 1 1 0 5 8 9 8
4 4 3 3 3 3 5 7 6 4 4 3 3 2 2 2 5 6 4 4 3 2 3 5 6 7 6 6 5 1 2 3 3 2 0 1 1 1 1 4 6 8 8
5 5 4 4 4 4 5 6 7 5 5 4 3 3 4 4 7 7 4 4 5 4 3 2 1 3 5 1 6 1 1 3 3 3 1 2 2 1 3 1 4 7 7